Weather reports worldwide

Advertisment
Nogales, az, United States of America (2074741): temperature & dewpoint: 01.07.2020 11:00:00 - 07.07.2020 11:00:00 (MST)Nogales, az, United States of America (2074741): wind speed & gusts: 01.07.2020 11:00:00 - 07.07.2020 11:00:00 (MST)Nogales, az, United States of America (2074741): wind direction: 01.07.2020 11:00:00 - 07.07.2020 11:00:00 (MST)Nogales, az, United States of America (2074741): reduced air pressure: 01.07.2020 11:00:00 - 07.07.2020 11:00:00 (MST)Nogales, az, United States of America (2074741): visibility: 01.07.2020 11:00:00 - 07.07.2020 11:00:00 (MST)Nogales, az, United States of America (2074741): precipitation: 01.07.2020 11:00:00 - 07.07.2020 11:00:00 (MST)
Date & Time tt [°C] td [°C] ff [km/h] ff [kn] fx [km/h] fx [kn] dd ppp [hPa] vv [km] rr [mm]
07.07.2020 11:00:00 34,4 11,1 11 6 - - W 1010,1 16 -
07.07.2020 10:00:00 31,7 14,4 - - - - - 1010,8 16 -
07.07.2020 09:00:00 29,4 15,0 5 3 - - - 1011,1 16 -
07.07.2020 08:00:00 28,3 16,1 5 3 - - - 1011,0 16 -
07.07.2020 07:00:00 24,4 15,6 8 4 - - SSE 1011,0 16 -
07.07.2020 06:00:00 21,7 13,9 8 4 - - SE 1011,0 16 -
07.07.2020 05:00:00 21,1 12,2 0 0 - - N 1010,1 16 -
07.07.2020 04:00:00 21,7 11,1 9 5 - - E 1010,1 16 -
07.07.2020 03:00:00 24,4 10,0 0 0 - - N 1009,5 16 -
07.07.2020 02:00:00 24,4 8,3 9 5 - - S 1009,4 16 -
07.07.2020 01:00:00 24,4 7,2 11 6 - - S 1009,3 16 -
07.07.2020 00:00:00 25,0 7,8 9 5 - - SSE 1008,9 16 -
06.07.2020 23:00:00 25,0 6,1 5 3 - - E 1008,6 16 -
06.07.2020 22:00:00 27,2 6,1 9 5 - - E 1008,1 16 -
06.07.2020 21:00:00 28,9 5,6 5 3 - - SE 1007,8 16 -
06.07.2020 20:00:00 32,2 6,1 9 5 - - WNW 1006,7 16 -
06.07.2020 19:00:00 35,0 7,8 9 5 - - WSW 1006,4 16 -
06.07.2020 18:00:00 35,0 7,2 21 11 - - SW 1006,7 16 -
06.07.2020 17:00:00 38,3 4,4 15 8 - - W 1006,5 16 -
06.07.2020 16:00:00 36,7 5,0 13 7 - - WSW 1007,5 16 -
06.07.2020 15:00:00 38,3 5,6 5 3 - - - 1007,8 16 -
06.07.2020 14:00:00 38,3 6,1 15 8 - - NW 1008,1 16 -
06.07.2020 13:00:00 38,3 7,2 9 5 - - - 1008,5 16 -
06.07.2020 12:00:00 36,1 9,4 8 4 - - - 1009,6 16 -
06.07.2020 11:00:00 33,3 8,9 0 0 - - N 1010,3 16 -
06.07.2020 10:00:00 32,2 11,7 5 3 - - - 1010,5 16 -
06.07.2020 09:00:00 30,0 12,8 0 0 - - N 1010,4 16 -
06.07.2020 08:00:00 27,2 14,4 5 3 - - SSE 1010,5 16 -
06.07.2020 07:00:00 24,4 13,9 0 0 - - N 1010,5 16 -
06.07.2020 06:00:00 20,6 13,3 8 4 - - E 1009,9 16 -
06.07.2020 05:00:00 22,8 12,2 0 0 - - N 1009,3 16 -
06.07.2020 04:00:00 22,2 12,8 0 0 - - N 1008,6 16 -
06.07.2020 03:00:00 22,2 12,2 9 5 - - E 1008,4 16 -
06.07.2020 02:00:00 23,9 12,8 8 4 - - SE 1008,2 16 -
06.07.2020 01:00:00 24,4 12,2 5 3 - - S 1008,3 16 -
06.07.2020 00:00:00 24,4 11,7 5 3 - - SSE 1008,8 16 -
05.07.2020 23:00:00 27,2 11,7 5 3 - - W 1009,4 16 -
05.07.2020 22:00:00 28,9 11,7 8 4 - - S 1008,9 16 -
05.07.2020 21:00:00 30,0 11,1 11 6 - - ESE 1007,9 16 -
05.07.2020 20:00:00 30,0 11,7 15 8 - - SSE 1008,0 16 -
05.07.2020 19:00:00 30,6 12,2 18 10 - - SE 1008,0 16 -
05.07.2020 18:00:00 35,0 6,7 11 6 - - WSW 1006,9 16 -
05.07.2020 17:00:00 36,1 6,7 18 10 - - WSW 1006,5 16 -
05.07.2020 16:00:00 35,6 8,9 22 12 - - WSW 1006,7 16 -
05.07.2020 15:00:00 38,3 7,2 21 11 - - WSW 1007,3 16 -
05.07.2020 14:00:00 38,3 8,9 13 7 - - WSW 1008,3 16 -
05.07.2020 13:00:00 36,1 11,1 11 6 - - - 1009,4 16 -
05.07.2020 12:00:00 35,6 12,2 5 3 - - - 1010,4 16 -
05.07.2020 11:00:00 33,3 12,8 8 4 - - - 1011,2 16 -
05.07.2020 10:00:00 31,7 13,9 5 3 - - N 1011,7 16 -
05.07.2020 09:00:00 29,4 15,0 5 3 - - - 1012,0 16 -
05.07.2020 08:00:00 25,6 16,7 9 5 - - S 1012,4 16 -
05.07.2020 07:00:00 23,9 15,0 0 0 - - N 1012,4 16 -
05.07.2020 06:00:00 18,9 14,4 5 3 - - NE 1013,4 16 -
05.07.2020 05:00:00 19,4 14,4 11 6 - - ENE 1012,8 16 -
05.07.2020 04:00:00 20,0 15,0 0 0 - - N 1011,0 16 -
05.07.2020 03:00:00 20,6 15,0 8 4 - - NE 1010,7 16 -
05.07.2020 02:00:00 21,7 15,0 0 0 - - N 1010,7 16 -
05.07.2020 01:00:00 21,7 15,6 11 6 - - SSE 1011,3 16 -
05.07.2020 00:00:00 22,2 16,1 5 3 - - S 1011,4 16 -
04.07.2020 23:00:00 23,3 15,6 11 6 - - E 1011,2 16 -
04.07.2020 22:00:00 23,3 17,2 8 4 - - ESE 1011,6 16 -
04.07.2020 21:00:00 24,4 17,2 11 6 - - ENE 1011,0 16 -
04.07.2020 20:00:00 26,7 16,1 11 6 - - WNW 1010,3 16 -
04.07.2020 19:00:00 26,7 16,1 9 5 - - E 1010,6 16 0,3
04.07.2020 18:00:00 25,0 17,8 22 12 55 30 SE 1011,0 16 0,3
04.07.2020 17:00:00 22,8 17,8 16 9 55 30 SW 1010,8 10 2,3
04.07.2020 16:00:00 34,4 12,2 22 12 - - SSW 1008,6 16 -
04.07.2020 15:00:00 37,2 9,4 11 6 - - - 1008,6 16 -
04.07.2020 14:00:00 36,1 11,7 9 5 - - - 1009,7 16 -
04.07.2020 13:00:00 36,7 12,8 15 8 - - WSW 1010,4 16 -
04.07.2020 12:00:00 35,6 13,3 5 3 - - NNE 1011,3 16 -
04.07.2020 11:00:00 34,4 14,4 0 0 - - N 1012,1 16 -
04.07.2020 10:00:00 31,1 15,0 5 3 - - - 1012,6 16 -
04.07.2020 09:00:00 30,0 15,6 11 6 - - SSW 1012,7 16 -
04.07.2020 08:00:00 27,2 15,6 11 6 - - SSE 1012,7 16 -
04.07.2020 07:00:00 24,4 14,4 0 0 - - N 1012,5 16 -
04.07.2020 06:00:00 20,0 13,3 5 3 - - E 1012,5 16 -
04.07.2020 05:00:00 20,6 13,3 0 0 - - N 1011,8 16 -
04.07.2020 04:00:00 21,7 12,8 8 4 - - NE 1011,1 16 -
04.07.2020 03:00:00 22,8 12,8 8 4 - - ENE 1011,2 16 -
04.07.2020 02:00:00 23,9 12,2 11 6 - - NNE 1011,0 16 -
04.07.2020 01:00:00 25,0 12,2 0 0 - - N 1011,6 16 -
04.07.2020 00:00:00 24,4 12,2 8 4 - - SSE 1012,0 16 -
03.07.2020 23:00:00 25,0 12,2 8 4 - - E 1011,7 16 -
03.07.2020 22:00:00 26,1 12,2 5 3 - - NW 1011,5 16 -
03.07.2020 21:00:00 28,9 12,2 5 3 - - NE 1010,6 16 -
03.07.2020 20:00:00 31,1 11,7 8 4 - - WNW 1009,7 16 -
03.07.2020 19:00:00 33,3 11,7 9 5 - - N 1009,4 16 -
03.07.2020 18:00:00 33,9 12,2 5 3 - - W 1009,6 16 -
03.07.2020 17:00:00 35,0 13,3 5 3 - - - 1009,6 16 -
03.07.2020 16:00:00 35,0 13,3 8 4 - - W 1010,3 16 -
03.07.2020 15:00:00 33,3 13,9 11 6 - - NW 1011,3 16 -
03.07.2020 14:00:00 35,0 13,9 11 6 - - - 1011,8 16 -
03.07.2020 13:00:00 32,8 13,9 8 4 - - - 1012,7 16 -
03.07.2020 12:00:00 32,2 14,4 8 4 - - W 1013,5 16 -
03.07.2020 11:00:00 31,1 15,6 0 0 - - N 1014,0 16 -
03.07.2020 10:00:00 28,9 16,1 8 4 - - SW 1014,5 16 -
03.07.2020 09:00:00 26,7 16,1 0 0 - - N 1015,0 16 -
03.07.2020 08:00:00 23,9 16,7 0 0 - - N 1015,4 16 -
03.07.2020 07:00:00 20,0 16,7 0 0 - - N 1015,1 16 -
03.07.2020 06:00:00 17,2 15,0 0 0 - - N 1015,0 16 -
03.07.2020 05:00:00 16,7 14,4 0 0 - - N 1014,3 16 -
03.07.2020 04:00:00 17,2 15,0 0 0 - - N 1014,2 16 -
03.07.2020 03:00:00 17,2 15,0 5 3 - - ENE 1013,4 16 -
03.07.2020 02:00:00 17,8 15,6 5 3 - - NNE 1012,6 16 -
03.07.2020 01:00:00 18,3 15,6 0 0 - - N 1012,4 16 -
03.07.2020 00:00:00 18,9 16,1 0 0 - - N 1012,8 16 -
02.07.2020 23:00:00 20,0 16,7 11 6 - - NNE 1012,7 16 -
02.07.2020 22:00:00 20,6 17,8 0 0 - - N 1013,1 16 -
02.07.2020 21:00:00 20,0 17,8 8 4 - - SE 1013,1 16 -
02.07.2020 20:00:00 21,1 17,2 5 3 - - N 1011,9 16 -
02.07.2020 19:00:00 23,9 15,0 9 5 - - N 1011,8 16 -
02.07.2020 18:00:00 23,9 15,6 21 11 - - NNE 1011,9 16 -
02.07.2020 17:00:00 24,4 19,4 16 9 - - N 1012,1 16 0,5
02.07.2020 16:00:00 21,7 20,0 18 10 - - WNW 1013,3 13 0,5
02.07.2020 15:00:00 23,3 17,8 34 18 - - S 1011,7 16 0,3
02.07.2020 14:00:00 28,3 15,6 13 7 - - W 1011,4 16 -
02.07.2020 13:00:00 30,0 16,1 13 7 - - WNW 1011,7 16 0,0
02.07.2020 12:00:00 27,8 16,7 9 5 - - - 1012,8 16 0,0
02.07.2020 11:00:00 27,8 16,7 13 7 - - N 1012,7 16 -
02.07.2020 10:00:00 25,0 16,1 8 4 - - NE 1013,5 16 0,0
02.07.2020 09:00:00 23,3 16,7 8 4 - - N 1013,4 16 0,0
02.07.2020 08:00:00 23,3 16,7 11 6 - - SSE 1013,1 16 0,0
02.07.2020 07:00:00 21,7 16,7 9 5 - - SSE 1012,4 16 0,0
02.07.2020 06:00:00 22,2 14,4 0 0 - - N 1011,4 16 0,0
02.07.2020 05:00:00 23,3 13,9 0 0 - - N 1010,4 16 -
02.07.2020 04:00:00 22,8 12,8 5 3 - - ESE 1010,1 16 -
02.07.2020 03:00:00 21,7 12,8 0 0 - - N 1010,2 16 -
02.07.2020 02:00:00 22,2 12,2 5 3 - - SSE 1009,7 16 -
02.07.2020 01:00:00 22,2 12,2 8 4 - - SSE 1010,1 16 -
02.07.2020 00:00:00 23,3 12,2 8 4 - - SSE 1009,9 16 -
01.07.2020 23:00:00 24,4 12,2 8 4 - - S 1009,6 16 -
01.07.2020 22:00:00 25,0 12,2 0 0 - - N 1009,9 16 -
01.07.2020 21:00:00 26,1 12,8 0 0 - - N 1009,7 16 -
01.07.2020 20:00:00 27,2 12,8 5 3 - - S 1009,3 16 -
01.07.2020 19:00:00 27,8 12,8 15 8 - - S 1009,2 16 -
01.07.2020 18:00:00 28,9 12,8 21 11 - - SSW 1009,1 16 -
01.07.2020 17:00:00 31,1 12,8 24 13 - - S 1008,3 16 -
01.07.2020 16:00:00 30,6 12,8 13 7 - - S 1008,6 16 0,0
01.07.2020 15:00:00 30,0 12,2 26 14 - - SE 1008,9 16 -
01.07.2020 14:00:00 33,9 10,6 11 6 - - - 1008,1 16 -
01.07.2020 13:00:00 32,2 10,6 18 10 - - SW 1009,1 16 -
01.07.2020 12:00:00 32,2 11,1 - - - - - 1009,5 16 -
01.07.2020 11:00:00 31,1 11,1 13 7 - - ESE 1010,0 16 -

tt = temperature
td = dewpoint
ff = wind speed
fx = gusts
dd = wind direction
ppp = reduced air pressure
vv = visibility
rr = precipitation

Next stations